Regional Weather Roundup
Issued by NWS

Home | Current Version | Previous Version | Graphics & Text | Print | Product List | Glossary On
Versions: 1 2 3 4 5 6 7 8 9 10 11 12 13 14 15 16 17 18 19 20 21 22 23 24 25 26 27 28 29 30 31 32 33 34 35 36 37 38 39 40 41 42 43 44 45 46 47 48 49 50
000
ASUS45 KBOU 301510
RWRCO

WEATHER ROUNDUP FOR COLORADO
NATIONAL WEATHER SERVICE DENVER/BOULDER CO
900 AM MDT TUE JUN 30 2015

NOTE: "FAIR" INDICATES FEW OR NO CLOUDS BELOW 12000 FEET WITH NO
SIGNIFICANT WEATHER AND/OR OBSTRUCTIONS TO VISIBILITY.

COZ001>005-013-030-031-301600-
...NORTHWEST COLORADO...

CITY           SKY/WX    TMP DP  RH WIND       PRES   REMARKS
CRAIG          MOSUNNY   73  51  46 CALM      30.26F
HAYDEN         MOSUNNY   70  45  40 E10       30.29R
MEEKER         MOSUNNY   69  46  43 CALM      30.28S
MOUNT WERNER   NOT AVBL
STEAMBOAT SPGS MOSUNNY   65  49  56 CALM      30.32S
WALDEN         SUNNY     59  43  55 CALM      30.42S
$$

COZ006>008-011-301600-
...WEST CENTRAL VALLEYS...

CITY           SKY/WX    TMP DP  RH WIND       PRES   REMARKS
GRAND JUNCTION MOSUNNY   82  46  28 SE10      30.14S
MONTROSE       MOSUNNY   77  48  35 CALM      30.23F
EAGLE          SUNNY     64  46  52 CALM      30.35F
RIFLE          SUNNY     73  49  42 W3        30.22F
DELTA          MOSUNNY   80  46  30 E8        30.19F
NUCLA          MOSUNNY   73  45  35 SE5       30.28S
$$

COZ017>023-064>068-301600-
...SOUTHWEST COLORADO...

CITY           SKY/WX    TMP DP  RH WIND       PRES   REMARKS
DURANGO        SUNNY     70  51  51 E5        30.34R
CORTEZ         SUNNY     77  51  40 W3        30.25S
PAGOSA SPRINGS SUNNY     69  46  44 E3        30.43R
TELLURIDE      SUNNY     65  44  46 CALM      30.51S
WOLF CREEK PAS NOT AVBL
$$

COZ009-010-012-014-032>034-037-058>063-301600-
...CENTRAL COLORADO...

CITY           SKY/WX    TMP DP  RH WIND       PRES   REMARKS
ASPEN          SUNNY     68  47  46 NE3       30.39S
BUENA VISTA    SUNNY     64  47  53 SW5       30.40S
COPPER MTN     MOSUNNY   59  36  41 W12       30.72S
BERTHOUD PASS  FAIR      50  41  71 NW17G23   30.76S
COTTONWOOD PAS NOT AVBL
GUNNISON       MOSUNNY   63  45  51 CALM      30.44S
KREMMLING      MOSUNNY   61  43  51 CALM      30.41S
LEADVILLE      MOSUNNY   61  44  53 VRB3      30.53F
MONARCH PASS   SUNNY     54  41  62 W8        30.81R
SALIDA         SUNNY     65  51  60 CALM      30.45S
SUNLIGHT       SUNNY     68  34  28 CALM      30.65S
WILKERSON PASS SUNNY     61  37  41 NE8       30.67S
$$

COZ069>075-301600-
...SAN LUIS VALLEY/SANGRE DE CRISTO MOUNTAINS...

CITY           SKY/WX    TMP DP  RH WIND       PRES   REMARKS
ALAMOSA        SUNNY     65  48  54 S7        30.41R
LA VETA PASS   SUNNY     59  45  58 MISG      30.58R
SAGUACHE       SUNNY     66  46  48 NW3       30.43R
$$

COZ035-036-038>040-301600-
...NORTHERN COLORADO FRONT RANGE...

CITY           SKY/WX    TMP DP  RH WIND       PRES   REMARKS
DENVER INTL AP MOSUNNY   77  50  38 W6        30.18R
DMNS CITY PARK   N/A     77  49  37 NW1G7     30.18S
AURORA         PTSUNNY   75  53  45 SW8       30.20F
FRONT RANGE AP MOSUNNY   77  55  47 W12       30.19S
ERIE MUNI ARPT SUNNY     76  50  39 CALM      30.16S
BOULDER MUN AP SUNNY     73  54  49 CALM      30.16F
CENTENNIAL     MOSUNNY   74  51  44 W8        30.21S
BROOMFIELD     MOSUNNY   73  54  49 CALM      30.20S
FORT COLLINS   MOSUNNY   72  55  56 CALM      30.16S
LONGMONT       MOSUNNY   79  52  38 CALM      30.17S
$$

COZ041-046-047-076>085-087-088-301600-
...PIKES PEAK/PALMER DIVIDE AND SOUTHERN FOOTHILLS...

CITY           SKY/WX    TMP DP  RH WIND       PRES   REMARKS
COLO. SPRINGS  MOSUNNY   76  51  41 SE6       30.26R
A. F. ACADEMY  SUNNY     74  51  44 S6        30.27S
ELLICOTT       SUNNY    N/A N/A N/A S6        30.25R
FALCON         SUNNY     75  47  37 S9        30.32R
FORT CARSON    SUNNY     74  54  49 VRB1      30.23R
LIMON          SUNNY     77  59  53 CALM      30.20R
MONUMENT HILL  SUNNY     73  50  43 CALM      30.31S
TRINIDAD       SUNNY     76  51  41 W9        30.25S
$$

COZ042>045-048>051-090-091-301600-
...NORTHEAST COLORADO...

CITY           SKY/WX    TMP DP  RH WIND       PRES   REMARKS
GREELEY ARPT   MOSUNNY   73  54  49 NW5       30.14S
AKRON          SUNNY     77  57  50 W10       30.12F
BURLINGTON     SUNNY     84  52  33 W8        30.13R
WRAY           SUNNY     84  57  40 SW5       30.06F
STERLING       SUNNY     73  61  64 SW8       30.08S
HOLYOKE        SUNNY     84  61  45 SW3       30.05F
FORT MORGAN    SUNNY     74  58  57 W8        30.13S
$$

COZ086-089-092>099-301600-
...SOUTHEAST COLORADO...

CITY           SKY/WX    TMP DP  RH WIND       PRES   REMARKS
PUEBLO         SUNNY     77  54  44 VRB3      30.17R
LA JUNTA       SUNNY     77  56  48 SW7       30.14F
LAMAR          SUNNY     79  58  48 W6        30.10F
SPRINGFIELD      N/A     81  52  36 SW13      30.15F
$$


USA.gov is the U.S. government's official web portal to all federal, state and local government web resources and services.